Home   Weather   Saskatoon   Past weeks
Flag for Canada

Past Weather in Saskatoon, Saskatchewan, Canada — Yesterday and Last 2 Weeks

Now
36 °F

Partly sunny.


Feels Like: 26 °F
Forecast: N/A
Wind: 15 mph from North

Location: Saskatoon Weather Station

Current Time: Mar 28, 2020 at 3:29:50 pm

Latest Report: Mar 28, 2020 at 2:00 pm


Visibility: 15 mi

Pressure: 29.88 "Hg

Humidity: 75%

Dew Point: 28 °F

Location of SaskatoonLocation

Past Weather in Saskatoon — Graph

°F

Saskatoon Temperature Yesterday

Maximum temperature yesterday: 41 °F (at 6:00 pm)
Minimum temperature yesterday: 21 °F (at 7:00 am)
Average temperature yesterday: 31 °F

High & Low Weather Summary for the Past Weeks

 TemperatureHumidityPressure
High41 °F (Mar 27, 6:00 pm)93% (Mar 21, 11:00 pm)30.87 "Hg (Mar 21, 11:00 pm)
Low-9 °F (Mar 18, 7:00 am)40% (Mar 20, 3:00 pm)29.53 "Hg (Mar 26, 10:00 pm)
Average16 °F76%30.20 "Hg
* Reported Mar 13 2:00 pm — Mar 28 2:00 pm, Saskatoon. Weather by CustomWeather, © 2020

Note: Actual official high and low records may vary slightly from our data, if they occured in-between our weather recording intervals... More about our weather records

Saskatoon Weather History for the Previous 24 Hours

Scroll right to see more
 ConditionsComfort  
Time TempWeatherWind HumidityBarometerVisibility
2:00 pm
Sat, Mar 28
36 °FPartly sunny.15 mph75%29.88 "Hg15 mi
1:00 pm36 °FScattered clouds.12 mph75%29.85 "Hg15 mi
12:00 pm37 °FScattered clouds.14 mph75%29.82 "Hg15 mi
11:00 am36 °FScattered clouds.12 mph75%29.78 "Hg15 mi
10:00 am32 °FPartly sunny.7 mph80%29.75 "Hg15 mi
9:00 am32 °FScattered clouds.10 mph80%29.72 "Hg15 mi
8:00 am30 °FScattered clouds.10 mph86%29.70 "Hg15 mi
7:00 am28 °FPassing clouds.10 mph93%29.68 "Hg15 mi
6:00 am30 °FPassing clouds.12 mph86%29.66 "Hg15 mi
5:00 am30 °FClear.10 mph86%29.65 "Hg15 mi
4:00 am32 °FClear.12 mph87%29.65 "Hg15 mi
3:00 am32 °FClear.12 mph87%29.66 "Hg15 mi
2:00 am34 °FPassing clouds.14 mph81%29.66 "Hg15 mi
1:00 am34 °FPassing clouds.15 mph75%29.68 "Hg15 mi
12:00 am36 °FPassing clouds.15 mph70%29.70 "Hg15 mi
11:00 pm
Fri, Mar 27
32 °FPassing clouds.10 mph75%29.72 "Hg15 mi
10:00 pm34 °FPassing clouds.13 mph70%29.73 "Hg15 mi
9:00 pm36 °FPassing clouds.16 mph70%29.74 "Hg15 mi
8:00 pm36 °FPassing clouds.9 mph70%29.75 "Hg15 mi
7:48 pm36 °FPassing clouds.8 mph70%29.75 "Hg15 mi
7:00 pm37 °FPartly sunny.10 mph65%29.76 "Hg15 mi
6:00 pm41 °FScattered clouds.12 mph53%29.78 "Hg15 mi
5:00 pm39 °FPassing clouds.10 mph61%29.78 "Hg15 mi
4:00 pm39 °FPassing clouds.13 mph56%29.79 "Hg15 mi
3:00 pm37 °FPassing clouds.8 mph56%29.82 "Hg15 mi
Weather by CustomWeather, © 2020

See weather overview

Advertising